[Iaude] MPEC F80: 2024 FN2 [a=1.27,e=0.22,i=9.2,H=25.8]

mpec at cfa.harvard.edu mpec at cfa.harvard.edu
Sun Mar 24 01:18:31 EDT 2024


M.P.E.C. 2024-F80                                Issued 2024 March 24, 05:17 UT

     The Minor Planet Electronic Circulars contain information on unusual
         minor planets, routine data on comets and natural satellites,
         and occasional editorial announcements.  They are published
    on behalf of Division F of the International Astronomical Union by the
          Minor Planet Center, Smithsonian Astrophysical Observatory,
                          Cambridge, MA 02138, U.S.A.
			  
             Prepared using the Tamkin Foundation Computer Network

                              MPC at CFA.HARVARD.EDU
            URL https://www.minorplanetcenter.net/    ISSN 1523-6714

                                    2024 FN2                                    


Observations:
     K24F02N*1C2024 03 22.41582115 47 25.080-03 53 31.80               VEF080G96
     K24F02N 1C2024 03 22.42615815 47 41.950-03 50 15.90         19.66GVEF080G96
     K24F02N 1C2024 03 22.43130215 47 50.390-03 48 37.90         19.57GVEF080G96
     K24F02N KC2024 03 22.45446215 48 27.857-03 41 22.70         19.90GVEF080I52
     K24F02N KC2024 03 22.45562415 48 29.761-03 41 01.32         19.74GVEF080I52
     K24F02N KC2024 03 22.45620915 48 30.701-03 40 50.63         20.14GVEF080I52
     K24F02N  C2024 03 22.46421215 48 42.368-03 38 27.82         19.6 GVEF080H01
     K24F02N  C2024 03 22.46794315 48 48.406-03 37 17.59         19.6 GVEF080H01
     K24F02N  C2024 03 22.47818915 49 04.989-03 34 04.82         19.5 GVEF080H01
     K24F02N  C2024 03 22.48860115 49 21.864-03 30 48.82         19.4 GVEF080H01
     K24F02N KC2024 03 22.50860615 49 55.405-03 24 24.41         19.70GVEF080I52
     K24F02N KC2024 03 22.50919715 49 56.356-03 24 13.07         19.52GVEF080I52
     K24F02N KC2024 03 22.50978315 49 57.292-03 24 01.73         19.36GVEF080I52
     K24F02N KC2024 03 22.51036815 49 58.256-03 23 51.00         19.38GVEF080I52
     K24F02N KB2024 03 23.01804 16 04 40.27 -00 47 06.8                XEF080M45
     K24F02N KB2024 03 23.02416 16 04 50.01 -00 45 14.4                XEF080M45
     K24F02N KC2024 03 23.06329416 05 56.326-00 32 37.90         19.2 GXEF080L34
     K24F02N KC2024 03 23.08675016 06 35.786-00 26 23.71         19.7 GVEF080J95
     K24F02N KC2024 03 23.09299716 06 45.828-00 24 29.48         19.7 GVEF080J95
     K24F02N 0B2024 03 24.04587 16 32 39.34 +04 23 29.6          19.8 VZEF080M49
     K24F02N 0B2024 03 24.06914 16 33 13.22 +04 30 06.5          20.2 VZEF080M49

Observer details:
G96 Mt. Lemmon Survey.  Observer H. Groeller.  Measurers T. Beuden, V. F.
    Carvajal, D. Fay, J. B. Fazekas, D. C. Fuls, A. R. Gibbs, A. D. Grauer, H.
    Groeller, J. K. Hogan, R. A. Kowalski, S. M. Larson, G. J. Leonard, D.
    Rankin, R. L. Seaman, F. C. Shelly, K. W. Wierzchos, H. Groeller.  1.5-m
    reflector + 10K CCD.
H01 Magdalena Ridge Observatory, Socorro.  Observers W. H. Ryan, E. V. Ryan.
    Measurers W. H. Ryan, W. H. Ryan, E. V. Ryan.  2.4-m f/8.9 Ritchey-
    Chretien + CCD.
I52 Steward Observatory, Mt. Lemmon Station.  Observer D. Rankin.  Measurers
    T. Beuden, V. F. Carvajal, D. Fay, J. B. Fazekas, D. C. Fuls, A. R. Gibbs,
    A. D. Grauer, H. Groeller, J. K. Hogan, R. A. Kowalski, S. M. Larson, G.
    J. Leonard, D. Rankin, R. L. Seaman, F. C. Shelly, K. W. Wierzchos, D.
    Rankin.  1.0-m prime focus + CCD.
J95 Great Shefford.  Observer P. Birtwhistle.  Measurers P. Birtwhistle, P.
    Birtwhistle.  0.41-m f/6.3 Schmidt-Cassegrain + CCD.
L34 Galhassin Robotic Telescope, Isnello.  Observer A. Nastasi.  Measurers A.
    Nastasi, A. Nastasi.  0.40-m f/3.8 400mm Reflector + CCD.
M45 Starhopper Observatory, Sfantu Gheorghe.  Observer F. Ursache.  Measurers
    F. Ursache, F. Ursache.  0.41-m f/7.5 reflector + CMO.
M49 IAS Remote Observatory, Hakos.  Observers D. Husar, M. Junius.  Measurers
    D. Husar, D. Husar, M. Junius.  0.25-m f/4.5 reflector + CMO.

Orbital elements:
2024 FN2                                                 Earth MOID = 0.0158 AU
Epoch 2024 Mar. 31.0 TT = JDT 2460400.5                 MPC                     
M 347.24400              (2000.0)            P               Q                  
n   0.68853889     Peri.   32.09700     -0.84134695     +0.54049260             
a   1.2701365      Node   180.62826     -0.52345753     -0.81562659             
e   0.2227834      Incl.    9.17133     -0.13463850     -0.20644856             
P   1.43           H   25.82          G   0.15           U   7                  
Residuals in seconds of arc
240322 G96 (1.1-  1.4-)   240322 H01  0.2-  0.1-    240323 M45  0.9+  0.2+
240322 G96  0.0   0.2+    240322 H01  0.3-  0.2-    240323 M45  0.0   0.2-
240322 G96 (1.4+  1.5+)   240322 H01  0.1-  0.2-    240323 L34  0.4+  0.9+
240322 I52  0.6+  1.1+    240322 I52  0.7+  0.3+    240323 J95  0.2-  0.3+
240322 I52  1.0+  0.6+    240322 I52  0.6+  0.5+    240323 J95  0.0   0.2-
240322 I52  0.9+  0.3+    240322 I52  0.4+  0.8+    240324 M49  0.0   0.7-
240322 H01  0.1-  0.1-    240322 I52  0.7+  0.6+    240324 M49  0.2+  0.5+

Ephemeris:
2024 FN2                 a,e,i = 1.27, 0.22, 9                   q = 0.9872
Date    TT    R. A. (2000) Decl.     Delta      r    Elong.  Phase     V
2024 02 23    10 19 08.9 -32 21 19   0.1186  1.0795   137.4    38.3    22.9
...
2024 03 09    11 20 30.9 -33 39 33   0.05796 1.0391   141.8    36.2    21.2
...
2024 03 17    13 16 27.5 -26 08 38   0.03198 1.0214   145.1    33.9    19.8
...
2024 03 23    16 04 00.9 -00 48 47   0.02575 1.0103   121.3    57.4    20.0
2024 03 24    16 31 14.9 +04 07 51   0.02673 1.0086   115.2    63.4    20.2
2024 03 25    16 56 17.4 +08 35 10   0.02823 1.0070   109.5    69.0    20.5
...
2024 03 31    18 38 27.5 +24 01 18   0.04397 0.9986    88.3    89.2    22.2
...
2024 04 08    19 39 10.3 +30 15 04   0.07117 0.9909    79.6    96.4    23.5
...
2024 04 23    20 26 44.7 +33 18 55   0.1231  0.9878    78.3    94.7    24.6

A. U. Tomatic                (C) Copyright 2024 MPC           M.P.E.C. 2024-F80





More information about the Iaude mailing list